Wind_Speed
30 29 30 31 32 34 35 36 36 37 38 39 39 38 37 36 35 35 35 36 37 39 40 41 42 42 43 44 45 46 47 48 49 50 50 51 52 53 53 53 54 53 53
33 33 34 35 36 37 36 36 36 36 36 36 36 36 35 35 35 37 38 39 40 40 40 41 43 45 46 47 48 49 50 52 53 54 54 54 55 55 55 55 56 56 55
34 35 36 37 37 36 36 35 34 34 34 34 33 34 34 35 36 38 40 41 42 42 43 44 46 48 50 52 54 55 56 57 58 59 60 60 60 60 59 58 57 57 57
33 35 37 36 36 35 34 33 32 32 33 33 33 34 35 36 38 40 42 43 45 46 48 50 51 53 55 56 58 60 61 63 63 64 65 65 66 66 66 65 63 62 61
35 37 37 37 36 34 33 33 33 34 34 35 35 36 37 39 41 43 45 47 49 51 53 55 56 58 60 62 63 65 66 68 68 69 69 70 70 70 70 70 70 69 68
38 39 39 38 36 35 35 35 36 36 37 38 39 40 42 44 46 48 50 53 55 56 58 60 62 64 66 67 68 70 71 73 75 76 76 76 76 76 76 75 74 74 74
39 40 39 37 37 37 37 37 38 40 42 43 44 45 47 49 52 54 56 58 60 61 63 65 67 70 72 74 75 76 77 78 79 81 82 82 83 83 83 82 81 80 79
40 39 38 37 38 39 40 41 43 44 46 49 51 53 54 55 57 59 61 62 64 66 68 70 72 74 75 77 79 81 82 82 83 84 85 86 87 88 88 89 89 88 86
39 38 38 39 40 41 43 45 47 49 51 54 58 61 64 65 65 63 65 67 69 71 73 75 77 79 80 81 83 84 86 87 88 89 90 91 92 93 94 95 95 95 94
40 40 40 40 42 43 46 48 51 54 57 59 62 65 68 71 72 71 70 72 74 76 78 80 82 84 86 88 89 90 92 94 94 95 95 95 96 96 98 99 99 99 98
40 40 41 42 44 47 49 52 55 58 61 64 66 67 69 71 74 76 76 78 79 81 83 86 88 90 93 95 97 99 100 100 100 100 101 101 100 100 100 101 102 102 101
40 41 42 45 47 50 53 56 59 61 64 66 69 71 73 75 78 80 82 82 84 85 89 91 94 97 100 103 105 106 106 105 104 102 101 99 98 97 96 96 97 99 100
41 43 45 48 51 54 57 59 62 65 67 69 72 74 76 79 82 85 88 89 89 90 93 96 99 102 106 108 109 108 106 102 99 96 94 91 90 88 87 86 86 87 91
43 46 48 51 54 57 60 63 66 68 70 72 74 76 79 82 85 88 92 96 97 96 97 100 103 105 107 106 104 101 97 92 88 85 83 81 79 78 77 76 77 79 82
46 49 52 55 58 61 64 67 69 71 73 75 77 79 82 85 88 92 96 101 106 107 105 106 106 104 101 99 94 91 87 83 80 78 75 73 71 69 69 69 69 72 76
49 52 56 59 63 66 69 70 72 73 75 77 80 82 86 89 93 97 101 105 108 111 112 107 102 97 91 87 85 83 81 78 74 71 69 67 66 65 65 66 67 68 72
53 57 61 64 67 69 70 71 72 74 76 79 82 86 90 94 98 102 105 106 105 105 106 100 93 87 82 79 77 76 74 72 69 66 65 63 63 63 63 64 66 67 69
58 62 66 68 70 70 70 71 73 75 78 82 87 91 96 100 103 104 104 102 100 97 96 93 86 82 78 75 71 67 65 64 63 61 61 61 61 62 63 64 65 65 67
63 66 69 69 69 69 69 72 75 79 83 88 93 98 101 103 103 101 98 95 92 90 87 87 82 78 75 70 66 61 59 57 57 58 59 60 61 61 61 61 61 62 64
67 68 68 67 67 69 71 75 80 84 89 94 98 101 102 101 98 94 90 87 85 83 82 82 79 75 71 65 62 59 55 52 51 53 54 55 56 56 55 56 57 58 59
68 67 65 66 68 71 76 81 86 91 95 99 101 100 98 94 90 85 82 80 80 80 81 79 76 72 67 62 59 56 52 46 42 45 47 46 47 46 45 47 48 49 52
65 64 64 67 71 77 82 88 93 97 100 101 99 95 90 84 80 76 75 76 77 79 79 76 72 68 63 58 54 49 45 40 33 33 37 33 35 34 34 35 36 38 43
62 63 66 71 76 82 88 94 98 101 101 99 94 87 80 75 73 72 72 73 74 74 73 71 67 62 57 51 47 40 36 32 28 27 27 22 24 24 25 26 26 28 33
63 67 71 77 83 89 94 99 102 103 99 92 84 77 73 70 71 73 74 74 72 68 65 62 59 54 49 44 39 35 30 24 21 22 22 16 15 16 18 20 20 19 23
66 71 77 83 89 94 99 103 104 100 92 83 76 72 71 71 72 74 75 72 66 59 55 52 48 45 41 37 35 31 28 24 17 17 19 13 9 10 11 14 15 12 15
71 77 82 87 92 97 102 104 101 94 85 77 72 70 71 73 74 73 69 64 57 50 45 39 36 34 33 32 33 32 29 24 16 14 16 12 9 7 5 10 10 6 9
Wind_Direction
295 295 295 294 294 294 294 293 292 290 288 287 287 287 287 288 289 291 291 291 292 292 292 292 291 290 289 288 288 288 287 287 286 284 283 281 279 277 276 275 275 274 272
291 293 295 294 295 296 295 293 291 289 289 288 288 289 290 292 293 293 293 292 291 290 290 290 289 289 288 288 287 286 286 286 286 286 285 283 281 279 276 274 273 272 271
290 293 295 296 296 296 296 296 296 296 295 294 293 293 293 293 293 292 291 290 290 289 288 287 286 286 286 286 285 285 285 284 284 284 284 283 281 279 277 274 272 271 270
293 295 297 297 296 297 298 299 299 298 297 296 295 294 293 292 290 290 289 290 290 289 288 288 288 287 287 286 286 285 285 284 283 283 282 281 279 278 276 274 272 270 268
297 298 297 297 297 298 298 298 298 297 296 295 294 294 293 292 291 291 292 292 291 291 291 290 290 289 288 288 288 287 287 286 284 282 281 279 277 276 275 274 272 271 269
299 300 300 299 299 299 299 299 299 299 298 297 296 296 296 295 295 295 294 293 292 292 291 291 290 290 290 289 288 288 287 286 285 283 281 279 277 275 273 271 271 270 269
300 301 301 301 301 301 301 301 301 301 300 300 299 298 297 297 296 295 294 294 293 292 292 291 291 291 291 290 289 288 286 284 283 282 280 278 276 274 272 269 268 266 266
300 301 302 302 302 303 303 303 303 302 302 300 299 297 295 294 293 293 293 292 291 291 291 290 290 290 290 289 289 288 286 284 281 280 278 277 275 273 271 268 266 263 261
303 303 303 303 303 304 304 303 302 302 301 300 300 299 297 295 293 292 292 292 292 292 292 292 292 291 290 289 288 287 286 285 283 281 279 276 273 271 269 266 264 262 260
303 303 302 303 303 303 302 302 302 301 301 300 300 299 299 299 298 296 295 295 295 295 295 294 294 293 292 290 290 290 289 288 286 284 280 277 273 269 266 264 262 260 258
301 301 302 303 303 303 302 302 302 302 301 301 301 300 300 299 298 297 296 296 297 297 297 297 297 296 295 294 294 293 293 291 289 285 282 279 274 270 265 262 259 257 255
300 301 301 302 302 302 303 303 303 303 302 302 302 301 301 300 300 299 298 297 298 298 299 299 299 299 298 297 296 296 294 292 289 286 283 279 276 272 268 264 260 256 253
300 301 301 302 303 304 304 304 304 304 303 303 302 302 302 302 302 302 302 301 300 300 300 301 301 300 300 299 297 296 294 291 288 285 282 279 275 272 268 264 260 255 251
300 301 303 305 306 307 306 306 305 304 304 304 304 305 305 305 305 305 304 304 302 302 302 302 302 302 301 300 298 296 293 291 288 285 282 279 276 273 269 265 261 255 251
301 304 306 308 309 309 308 307 307 306 306 306 307 307 307 307 306 306 306 307 306 305 304 304 304 304 302 300 298 296 294 292 289 286 282 279 275 271 268 265 262 257 251
305 307 309 310 310 310 309 309 308 308 308 309 309 308 308 308 308 308 308 308 307 307 307 307 306 305 303 301 299 297 295 292 289 286 283 280 276 272 268 265 262 258 252
308 310 311 312 311 311 310 310 310 310 310 310 310 310 310 309 309 309 308 308 307 307 307 308 308 307 305 302 300 297 294 291 289 287 284 281 278 274 270 266 263 259 253
311 312 313 312 312 312 312 311 311 312 312 312 312 311 311 310 310 309 308 308 307 307 308 309 309 308 307 305 302 298 294 292 290 288 285 282 279 275 271 268 264 260 254
313 313 314 314 313 313 313 313 314 314 314 314 313 312 312 310 309 308 308 308 308 308 309 309 310 309 308 307 304 300 296 294 292 289 287 284 281 277 273 269 265 260 253
314 314 314 314 315 315 316 316 316 316 315 315 314 313 311 310 309 308 308 308 309 309 310 311 311 310 309 308 305 302 299 296 294 291 288 286 283 279 275 270 266 260 252
314 314 315 316 317 318 318 318 317 317 317 316 315 313 311 310 309 309 310 310 311 312 312 312 311 311 310 309 306 304 303 300 298 294 290 289 287 285 280 274 268 260 250
314 314 316 318 319 320 320 319 319 319 318 317 315 313 311 310 310 311 311 312 313 314 313 312 312 312 311 309 308 309 308 306 302 293 293 295 293 292 287 281 272 260 246
313 316 318 320 320 321 321 321 320 320 319 317 315 313 312 312 312 312 312 313 313 313 313 312 313 313 311 312 312 313 313 312 308 299 298 301 298 300 297 293 283 266 245
314 317 318 319 320 321 321 321 321 320 319 317 315 314 314 314 314 313 314 314 314 314 314 314 313 313 314 315 317 321 323 320 311 302 302 307 304 307 306 302 294 275 245
316 317 319 320 321 321 321 321 321 320 319 317 316 315 315 315 315 315 314 314 315 315 315 315 314 315 317 320 323 327 329 329 315 296 297 305 313 316 317 312 307 288 242
317 319 320 321 321 322 322 322 321 320 318 317 317 316 316 315 315 314 314 315 316 317 318 318 317 318 321 323 325 327 330 332 321 293 290 298 304 307 321 319 322 300 230
Height
5803 5802 5800 5798 5796 5794 5792 5790 5787 5784 5782 5780 5777 5775 5773 5771 5769 5767 5765 5764 5761 5759 5756 5753 5750 5749 5747 5746 5744 5741 5740 5738 5736 5735 5734 5733 5732 5731 5730 5729 5728 5728 5728
5798 5796 5794 5791 5789 5786 5784 5781 5779 5776 5774 5771 5769 5767 5766 5764 5761 5759 5756 5754 5752 5750 5747 5744 5741 5738 5735 5733 5731 5729 5727 5725 5723 5722 5720 5719 5718 5717 5716 5716 5715 5714 5714
5792 5790 5787 5784 5781 5778 5775 5773 5770 5768 5766 5764 5762 5760 5757 5755 5753 5750 5747 5744 5742 5739 5736 5733 5730 5727 5724 5721 5718 5715 5713 5711 5709 5707 5705 5704 5703 5702 5701 5701 5700 5700 5700
5785 5783 5780 5777 5773 5770 5768 5765 5763 5760 5758 5756 5754 5751 5748 5746 5743 5740 5737 5734 5731 5727 5723 5720 5717 5713 5710 5706 5703 5700 5697 5695 5693 5691 5689 5687 5685 5684 5684 5684 5684 5684 5684
5778 5776 5772 5769 5766 5763 5760 5757 5755 5752 5749 5747 5744 5742 5739 5736 5732 5729 5726 5722 5718 5714 5710 5706 5702 5698 5694 5690 5686 5682 5679 5676 5674 5672 5670 5668 5666 5665 5664 5664 5664 5665 5666
5772 5769 5765 5762 5759 5755 5752 5749 5746 5742 5739 5737 5734 5732 5728 5725 5721 5718 5714 5710 5705 5700 5696 5691 5686 5681 5677 5672 5668 5664 5659 5655 5651 5649 5647 5646 5645 5644 5643 5643 5643 5644 5645
5764 5761 5758 5754 5751 5747 5744 5740 5737 5733 5729 5726 5723 5720 5717 5713 5708 5704 5699 5695 5690 5685 5680 5674 5669 5663 5657 5651 5646 5641 5637 5633 5629 5625 5622 5621 5620 5619 5619 5619 5619 5620 5622
5757 5753 5749 5746 5742 5739 5735 5731 5728 5724 5719 5714 5710 5707 5705 5703 5697 5691 5685 5679 5674 5669 5663 5657 5651 5644 5637 5631 5624 5617 5611 5608 5605 5601 5597 5594 5592 5591 5590 5591 5592 5594 5596
5749 5745 5741 5737 5734 5730 5726 5722 5718 5714 5709 5704 5697 5691 5685 5681 5679 5677 5670 5664 5657 5651 5644 5637 5630 5622 5614 5607 5599 5592 5585 5580 5576 5572 5569 5566 5563 5560 5559 5559 5560 5562 5566
5740 5736 5733 5729 5725 5721 5717 5712 5707 5701 5696 5690 5684 5676 5669 5660 5654 5651 5649 5642 5635 5629 5622 5614 5606 5597 5587 5579 5571 5563 5555 5549 5544 5539 5535 5532 5529 5527 5525 5524 5525 5527 5531
5732 5728 5724 5720 5716 5711 5706 5701 5695 5688 5682 5675 5668 5661 5654 5646 5637 5629 5625 5620 5613 5605 5596 5588 5578 5568 5557 5546 5536 5528 5520 5512 5506 5500 5495 5491 5489 5488 5487 5487 5488 5491 5496
5725 5720 5716 5712 5707 5701 5695 5689 5682 5675 5668 5660 5651 5643 5635 5627 5617 5609 5602 5598 5591 5584 5572 5562 5550 5538 5525 5512 5501 5491 5482 5473 5465 5458 5453 5449 5447 5446 5446 5447 5450 5455 5461
5716 5712 5707 5702 5696 5689 5683 5676 5668 5661 5653 5644 5635 5627 5617 5607 5597 5586 5577 5570 5566 5561 5550 5539 5523 5509 5494 5479 5467 5455 5446 5437 5428 5420 5415 5411 5408 5408 5407 5409 5413 5418 5424
5707 5702 5697 5691 5684 5677 5670 5662 5654 5646 5637 5628 5618 5608 5599 5588 5577 5565 5552 5540 5534 5532 5526 5514 5498 5481 5464 5446 5432 5419 5410 5402 5394 5388 5382 5378 5376 5375 5375 5377 5380 5386 5392
5698 5692 5686 5679 5671 5664 5656 5647 5638 5629 5620 5610 5600 5590 5579 5568 5556 5543 5528 5512 5496 5489 5491 5482 5466 5451 5433 5415 5400 5386 5378 5371 5364 5358 5353 5350 5348 5347 5348 5349 5351 5356 5362
5687 5681 5674 5666 5658 5649 5640 5631 5621 5612 5602 5592 5581 5571 5559 5547 5534 5519 5503 5487 5468 5449 5443 5443 5431 5419 5405 5389 5374 5360 5349 5342 5336 5331 5327 5323 5322 5322 5322 5323 5325 5328 5333
5675 5668 5660 5651 5642 5633 5624 5614 5605 5595 5585 5575 5563 5551 5538 5523 5509 5493 5477 5461 5443 5423 5406 5406 5398 5387 5377 5365 5353 5339 5326 5318 5312 5307 5302 5299 5297 5296 5296 5297 5299 5301 5306
5662 5654 5645 5636 5626 5617 5607 5598 5589 5579 5568 5556 5543 5529 5514 5498 5483 5466 5450 5433 5417 5401 5383 5373 5371 5360 5351 5339 5328 5317 5307 5298 5291 5285 5279 5275 5272 5270 5270 5271 5272 5275 5278
5648 5639 5629 5620 5610 5601 5591 5582 5572 5561 5548 5535 5520 5505 5489 5472 5456 5439 5423 5408 5393 5380 5366 5352 5345 5336 5326 5315 5304 5296 5288 5280 5272 5264 5258 5253 5248 5245 5244 5245 5246 5248 5251
5633 5624 5614 5604 5594 5584 5574 5564 5554 5542 5529 5513 5497 5480 5462 5445 5428 5413 5400 5387 5372 5360 5348 5334 5323 5313 5304 5295 5283 5275 5270 5264 5255 5245 5238 5232 5226 5223 5222 5221 5221 5222 5225
5618 5608 5599 5589 5579 5568 5557 5546 5535 5522 5507 5491 5473 5455 5437 5420 5404 5390 5377 5365 5352 5339 5327 5314 5303 5293 5284 5275 5266 5257 5249 5245 5240 5227 5220 5216 5209 5207 5204 5201 5200 5200 5203
5604 5594 5584 5574 5563 5551 5539 5526 5512 5499 5482 5465 5449 5432 5415 5400 5386 5374 5361 5349 5335 5321 5307 5294 5284 5274 5266 5257 5248 5241 5233 5227 5224 5217 5207 5205 5198 5195 5191 5187 5185 5184 5186
5590 5581 5570 5560 5548 5534 5519 5505 5490 5475 5458 5440 5423 5408 5395 5381 5367 5356 5346 5335 5323 5309 5293 5279 5268 5259 5250 5243 5235 5229 5222 5215 5210 5205 5199 5197 5192 5187 5183 5179 5176 5174 5176
5577 5567 5556 5543 5530 5515 5499 5483 5468 5452 5435 5417 5401 5387 5375 5364 5351 5337 5327 5317 5305 5293 5279 5267 5256 5246 5238 5231 5224 5219 5213 5208 5204 5198 5192 5190 5187 5183 5180 5175 5171 5169 5171
5564 5552 5540 5526 5512 5497 5479 5461 5443 5428 5412 5398 5384 5371 5357 5346 5334 5321 5308 5298 5289 5279 5269 5257 5246 5237 5230 5224 5217 5212 5207 5202 5199 5194 5188 5185 5184 5181 5178 5174 5170 5168 5170
5549 5537 5523 5508 5493 5477 5459 5439 5419 5404 5392 5381 5370 5357 5343 5329 5317 5304 5292 5282 5274 5266 5258 5249 5241 5233 5226 5219 5213 5206 5201 5196 5193 5190 5186 5183 5181 5179 5177 5175 5172 5170 5171